Regional Weather Roundup
Issued by NWS

Home | Current Version | Previous Version | Graphics & Text | Print | Product List | Glossary On
Versions: 1 2 3 4 5 6 7 8 9 10 11 12 13 14 15 16 17 18 19 20 21 22 23 24 25 26 27 28 29 30 31 32 33 34 35 36 37 38 39 40 41 42 43 44 45 46 47 48 49 50
000
ASUS43 KFSD 301402
RWRSD

WEATHER ROUNDUP FOR SOUTH DAKOTA
NATIONAL WEATHER SERVICE SIOUX FALLS SD
900 AM CDT TUE AUG 30 2016

NOTE: "FAIR" INDICATES FEW OR NO CLOUDS BELOW 12,000 FEET WITH NO
SIGNIFICANT WEATHER AND/OR OBSTRUCTIONS TO VISIBILITY.


SDZ001>005-009-010-012>017-301500-
NORTHWEST AND NORTH CENTRAL SOUTH DAKOTA

CITY           SKY/WX    TMP DP  RH WIND       PRES   REMARKS
BUFFALO          N/A     64  62  93 SE16      30.19S
FAITH            N/A     66  53  63 E12       30.24S
MOBRIDGE       SUNNY     64  51  62 SE7       30.23S
$$

SDZ012>016-024>037-041>051-057-063-072>074-301500-
SOUTHWEST AND SOUTH CENTRAL SOUTH DAKOTA

CITY           SKY/WX    TMP DP  RH WIND       PRES   REMARKS
RAPID CTY ARPT FOG       63  63 100 SE5       30.26S VSB<1/4
PIERRE         CLOUDY    68  63  84 E14       30.19S
CUSTER         SUNNY     62  57  83 CALM      30.38R
ELLSWORTH AFB  FOG       64  64 100 S5        30.25S VSB 3/8
PHILIP         SUNNY     65  61  87 E9        30.22S
PINE RIDGE     SUNNY     59  57  93 CALM      30.26S
WINNER         FAIR      71  64  78 CALM      30.21R
$$

SDZ004>011-016>023-039-040-301500-
NORTHEAST SOUTH DAKOTA

CITY           SKY/WX    TMP DP  RH WIND       PRES   REMARKS
ABERDEEN       SUNNY     61  54  77 NE9       30.24S
WATERTOWN      SUNNY     68  62  81 NE6       30.24S
SISSETON         N/A     65  59  81 N5        30.24S
$$

SDZ017-020-022-023-036>040-048>070-301500-
SOUTHEAST SOUTH DAKOTA

CITY           SKY/WX    TMP DP  RH WIND       PRES   REMARKS
SIOUX FALLS    CLOUDY    72  68  87 SE6       30.21R
HURON          MOSUNNY   70  64  81 E5        30.20S
CHAMBERLAIN    CLOUDY    72  70  93 SE10      30.21R
MITCHELL       MOSUNNY   71  67  87 SE6       30.20S
YANKTON        CLOUDY    66  63  88 SE5       30.20R
$$

ABBREVIATIONS USED IN REMARKS
   TC - TEMPERATURE IN CELSIUS
  WCI - WIND CHILL INDEX
   HX - HEAT INDEX
  VSB - VISIBILITY





USA.gov is the U.S. government's official web portal to all federal, state and local government web resources and services.